Regional Weather Roundup
Issued by NWS Wakefield, VA

Home | Current Version | Previous Version | Text Only | Print | Product List | Glossary On
Versions: 1 2 3 4 5 6 7 8 9 10 11 12 13 14 15 16 17 18 19 20 21 22 23 24 25 26 27
000
ASUS41 KAKQ 171515
RWRAKQ

REGIONAL WEATHER ROUNDUP
NATIONAL WEATHER SERVICE WAKEFIELD VA
1000 AM EST TUE JAN 17 2017

Note: "fair" indicates few or no clouds below 12,000 feet with no
significant weather and/or obstructions to visibility. * = Denotes
station may not report precipitation (e.g., rain,snow,etc.),
thunder or fog.

VAZ042-051-052>054-056-171600-
NORTHERN VIRGINIA

CITY           SKY/WX    TMP DP  RH WIND       PRES   REMARKS
WASH NATIONAL  LGT RAIN  43  41  93 S7        30.21S
DULLES         LGT RAIN  41  39  93 SE6       30.17F FOG
FORT BELVOIR   LGT RAIN  42  40  93 CALM      30.20F
QUANTICO       LGT RAIN  41  41 100 CALM      30.22S
FREDERICKSBRG* RAIN      44  44 100 CALM      30.19F
STAFFORD*      RAIN      42  42 100 CALM      30.23F
WARRENTON      LGT RAIN  43  40  89 CALM      30.17F
CULPEPER*      RAIN      42  42  99 SE3       30.18F
MANASSAS*      CLOUDY   N/A N/A N/A CALM        N/A  FOG
LEESBURG*      RAIN      43  43 100 SE8       30.17F
WINCHESTER     LGT RAIN  37  36  93 E3        30.11F VSB 1
FRONT ROYAL*   CLOUDY    41  41 100 CALM      30.11F VSB 1
LURAY*         DRIZZLE   46  46 100 CALM      30.11F
$$

VAZ048-049-060>072-079>083-171600-
CENTRAL AND SOUTH CENTRAL VIRGINIA

CITY           SKY/WX    TMP DP  RH WIND       PRES   REMARKS
RICHMOND       LGT RAIN  47  45  93 S9        30.21F
CHESTERFIELD*  CLOUDY    46  30  53 S5        30.23S
PETERSBURG*    LGT RAIN  48  45  87 S5        30.23S
HANOVER        LGT RAIN  46  42  86 S8        30.22S FOG
TAPPAHANNOCK*  CLOUDY    47  46  96 S7        30.22S
QUINTON*       CLOUDY    46  45  95 S6        30.22S
CHARLOTTSVILLE LGT RAIN  44  42  93 S6        30.14F FOG
GORDONSVILLE*  CLOUDY    42  41  99 SW5       30.16F
ORANGE*        RAIN      43  43 100 CALM      30.18F
LOUISA*        CLOUDY    46  45  93 S3        30.16F FOG
BUMPASS*       CLOUDY    43  43 100 CALM      30.19F
FARMVILLE*     CLOUDY    48  46  95 S5        30.18F
CREWE*         CLOUDY    49  49 100 S6        30.20F
FORT PICKETT*  CLOUDY    49  46  88 S7        30.21S
CHASE CITY*    CLOUDY    50  48  95 CALM      30.22R
CLARKSVILLE*   PTSUNNY   52  50  93 SW6       30.22S
SOUTH HILL*    CLOUDY    50  49  94 SW9       30.29R
LAWRENCEVILLE* CLOUDY    50  48  92 SW7       30.23R
EMPORIA*       CLOUDY    48  45  87 S3        30.25F
$$

VAZ088>098-171600-
SOUTHEAST VIRGINIA

CITY           SKY/WX    TMP DP  RH WIND       PRES   REMARKS
NORFOLK        CLOUDY    50  45  83 S9        30.25R
VIRGINIA BEACH CLOUDY    49  44  83 S7        30.26R
NORFOLK NAVAL  CLOUDY    49  44  83 S9        30.26R
WEST POINT*    CLOUDY    48  45  90 S5        30.25R
SALUDA*        CLOUDY    47  45  93 S5        30.22S
NEWPORT NEWS   CLOUDY    48  45  89 S9        30.24S
LANGLEY AFB    CLOUDY    48  45  87 S12       30.24S FOG
FORT EUSTIS    CLOUDY    48  44  86 S5        30.22R FOG
WILLIAMSBURG*  CLOUDY    48  46  93 S6        30.25R
HR EXEC AP*    CLOUDY    48  43  81 SW7       30.24S
FRANKLIN*      CLOUDY    48  44  84 S8        30.25F
US460-WAKEFLD  CLOUDY    49  45  86 S7        30.24S
$$

VAZ020-022-025-037-045-171600-
WEST CENTRAL AND SOUTHWEST VIRGINIA

CITY           SKY/WX    TMP DP  RH WIND       PRES   REMARKS
STAUNTON*      CLOUDY    47  46  96 SW3       30.13F
WAYNESBORO*    PTSUNNY   47  46  96 CALM      30.12F
HOT SPRINGS VA DRIZZLE   52  52 100 SW15      30.11F
LYNCHBURG      LGT RAIN  43  42  97 S8        30.18F FOG
DANVILLE       CLOUDY    51  48  89 SW7       30.23R
SOUTH BOSTON*  PTSUNNY   50  49  95 CALM      30.22F
MARTINSVILLE   CLOUDY    50  46  88 SW3       30.22F FOG
ROANOKE        RAIN      44  43  96 CALM      30.19S FOG
BLACKSBURG     LGT RAIN  48  48 100 CALM      30.20S
DUBLIN*        LGT RAIN  46  46 100 CALM      30.18S
MARION*        RAIN      47  46  96 CALM      30.19S
HILLSVILLE*    RAIN      49  49  99 CALM      30.16S
RICHLANDS*     LGT RAIN N/A N/A N/A S7        30.12F
WISE*          LGT RAIN  55  55 100 SW16      30.12F
ABINGDON*      CLOUDY    54  52  94 SE3       30.15S
$$

MDZ021>025-VAZ099-100-171600-
SOUTHERN MARYLAND AND THE DELMARVA PENINSULA

CITY           SKY/WX    TMP DP  RH WIND       PRES   REMARKS
PATUXENT RIVER CLOUDY    45  42  89 S6        30.21S
BAY BRIDGE APT CLOUDY    41  39  93 S5        30.22R FOG
LEONARDTOWN    CLOUDY    43  41  93 S3        30.22S
DOVER          CLOUDY    41  41 100 S5        30.21R
GEORGETOWN     LGT RAIN  43  40  89 S5        30.23S FOG
EASTON         CLOUDY    45  41  87 S5        30.25  FOG
CAMBRIDGE      CLOUDY    43  39  87 S6        30.21F
SALISBURY      CLOUDY    43  42  97 S5        30.22S FOG
OCEAN CITY     LGT RAIN  43  42  97 S5        30.24S FOG
WALLOPS ISLAND CLOUDY    45  43  93 S7        30.24F
ACCOMACK*      PTSUNNY   47  44  87 S5        30.22F
$$

NCZ012>017-030>032-171600-
NORTH CENTRAL AND EASTERN NORTH CAROLINA

CITY           SKY/WX    TMP DP  RH WIND       PRES   REMARKS
ROANOKE RAPIDS CLOUDY    48  48 100 S6        30.25F FOG
RALEIGH        FOG       52  50  93 SW7       30.26S VSB 1
ELIZABETH CITY CLOUDY    49  44  83 S5        30.28R
AHOSKIE*         N/A     49  46  87 S5        30.26F
EDENTON*       CLOUDY    51  46  82 CALM      30.29R
CURRITUCK*     CLOUDY    48  46  90 SW5       30.29R
KILL DEVIL HLS NOT AVBL
MANTEO         CLOUDY    51  46  82 CALM      30.28S
CAPE HATTERAS  MOSUNNY   57  47  69 NE5       30.27F
TARBORO*       NOT AVBL
GOLDSBORO      CLOUDY    50  50 100 CALM      30.26F
WASHINGTON     SUNNY     52  46  79 CALM      30.29S
GREENVILLE     CLOUDY    52  46  82 S5        30.29S
NEW BERN       MOSUNNY   54  46  74 CALM      30.29S
WILMINGTON     CLOUDY    58  52  80 CALM      30.27S
$$

VAZ048-171600-
ELSEWHERE

CITY           SKY/WX    TMP DP  RH WIND       PRES   REMARKS
HARRISBURG PA  CLOUDY    37  33  85 CALM      30.18F FOG
BALTIMORE      LGT RAIN  41  40  96 S3        30.20S FOG
ANNAPOLIS      CLOUDY    43  40  89 S5        30.22R FOG
ANDREWS AFB    LGT RAIN  41  39  92 S6        30.19F
PHILADELPHIA   CLOUDY    41  35  79 CALM      30.23S
HENDERSON NC   CLOUDY    51  47  86 SW10      30.23S
GREENSBORO     CLOUDY    53  51  93 SW9       30.22R
ROCKY MOUNT    CLOUDY    51  50  96 S6        30.27F FOG
$$

VAZ100-171600-
MARINE

STATION/POSITION TIME  TEMP    WIND        PRES    WAVE   SWELL
                       AIR SEA DIR/SP/G            HT/PER HT/PER
                 (UTC) (F)     (DEG/KT/KT) (MB)    (FT/S) (FT/S)
CAPE MAY NJ      1448   42 40  140/  5/  6 1023.2F
LEWES DE         1436   44 41  170/  5/  7 1023.4S
OCEAN-CITY-INLET 1436   43 42  200/  5/  7 1024.1F
WACHAPREAGUE VA  1448   45 44  200/  5/  7 1023.8R
THOMAS POINT MD  1500   40 39  200/  7/  8   N/A
GOOSES REEF MD   1500   40     190/  8/  8 1023.9    1
COVE POINT MD    1448   40     190/  7/  8 1023.7S
SOLOMONS ISLAND  1442   43 40  180/  5/  6   N/A
BISHOPS HEAD MD  1448   42 41  170/  8/ 10 1023.5F
PINEY POINT MD   1448          140/  5/  5   N/A
POTOMAC MD       1500   42 40  180/  6/  6 1022.3    1
CAMBRIDGE MD     1448   43 39  160/  5/  9 1022.5F
LEWISETTA VA     1448   44 42  210/  5/  6 1022.8R
RAPPAHANNOCK LGT 1448          180/ 14/ 15 1024.1R
STINGRAY PT      1450   41     200/ 10/ 12 1023.9R
YORK RVR RNG VA  1448   44     200/  8/  9 1023.3R
YORKTOWN VA      1448   48 42  210/  7/ 11 1023.4S
JAMESTOWN VA     1500   47 43  170/  4/  6   N/A     0
DOMINION TERM VA 1448   46     210/  7/  8 1024.4R
KIPTOPEKE VA     1442      42  170/  5/  7   N/A
CHES BAY BRIDGE  1448   46 42  200/  7/  8 1024.4R
CAPE HENRY VA    1448   48     190/  7/ 10   N/A
WILLOUBY STN VA  1448   47     200/ 12/ 14 1025.2R
S CRANEY ISL VA  1448   47     190/  7/  9 1024.3R
CAPE HENRY BUOY  1442      47                N/A     2/ 9
OFFSHORE WE BUOY 1451      49                N/A     2/ 9
64NM E OF VA BCH 1450   53 56  280/  4/  6 1024.6    2/ 9   2/ 9
DUCK PIER NC     1448   48 44  210/  4/  4 1024.7S
44100 DUCK FRF   1435      46                N/A     2/ 9
44056 DUCK FRF   1430      44                N/A     2/10
OREGON INLET NC  1442   51 49  280/  3/  4 1025.3R
HATTERAS NC      1442   48 52   10/  6/  7 1024.5F
DIAMOND SHLS NC  1450   59 72   10/  6/  8 1024.9    3/ 9   2/ 9
$$




USA.gov is the U.S. government's official web portal to all federal, state and local government web resources and services.